Back to catalog

FENGYUN 1C DEB

LostSSO
NORAD 38831·DEBRIS·🇨🇳 China

Launched May 10, 1999 from Taiyuan Satellite Launch Center

Loading…

Next Passes (next 24 hours)

TLE

StaleSource: Space-Track

Epoch: Jul 26, 2018, 14:16 UTC

1 38831U 99025EVX 18207.59496050 +.00000365 +00000-0 +25963-3 0  9996
2 38831 099.2309 214.9187 0057028 039.0780 321.4957 14.03275232503501

Track FENGYUN 1C DEB in real time with AllMySat

Download on the App Store